RH
43 46 50 52 55 56 59 64 68 71 73 66 54 46 41 37 35 34 32 29 26 26 29 34 40 47 51 52 52 51 50 49 50 52 53 53 55 58 64 68 70 71
45 46 48 51 55 57 58 62 66 70 74 69 56 47 42 38 37 36 33 29 27 26 29 35 41 47 51 53 54 54 54 54 56 58 59 58 58 62 67 69 71 71
47 47 48 50 54 58 59 62 66 71 75 71 58 48 43 40 38 37 34 31 28 27 30 36 42 48 53 55 56 56 58 59 62 64 64 63 64 67 71 72 72 73
50 49 50 51 53 57 61 65 70 75 78 73 60 49 44 42 40 38 35 32 30 30 32 37 45 51 56 57 57 59 62 65 67 69 68 68 71 72 73 74 73 74
54 53 52 53 54 57 61 67 74 80 82 77 63 51 46 44 43 40 38 37 36 35 35 40 48 54 56 58 60 64 68 71 72 71 72 73 73 74 75 74 73 76
55 56 55 56 56 58 61 67 76 83 87 84 70 55 48 47 47 48 47 46 43 38 34 39 48 53 57 61 64 69 73 75 75 75 76 76 75 75 76 76 77 81
54 56 58 59 59 60 63 69 77 84 90 90 79 61 52 51 50 51 50 47 44 39 35 39 48 55 60 65 70 76 79 79 79 79 78 77 77 77 76 80 84 86
55 57 60 63 63 63 66 72 82 90 94 96 91 73 59 55 54 52 51 49 47 43 39 42 50 58 63 69 77 83 84 84 84 82 80 80 80 80 82 86 88 86
58 59 62 65 67 67 68 76 89 97 99 100 100 89 71 61 59 55 51 49 46 43 40 43 51 58 65 74 83 88 90 89 86 84 84 84 85 86 87 88 86 80
61 62 65 69 72 72 73 80 92 100 100 99 101 99 86 71 64 59 53 48 45 41 39 41 48 58 69 81 91 95 93 89 86 87 88 88 89 90 89 86 79 68
67 66 69 72 75 77 77 82 93 100 101 100 100 101 97 84 72 65 59 52 47 42 38 41 49 60 75 89 97 96 91 89 90 91 92 92 93 92 87 79 69 60
73 72 73 75 78 80 80 84 94 99 100 101 100 100 101 94 82 73 67 60 54 47 44 46 53 67 83 95 97 93 91 93 94 94 95 96 94 88 80 72 64 56
78 78 79 80 81 81 81 84 93 100 100 100 100 100 101 99 90 80 73 67 60 55 52 53 61 77 91 96 95 94 95 96 96 97 99 96 89 81 73 63 53 46
83 85 85 85 84 83 83 83 88 97 100 100 100 100 100 101 96 86 77 70 65 60 58 61 72 85 92 94 95 96 97 97 98 100 97 90 81 70 59 49 42 38
88 91 91 90 88 87 86 86 89 96 100 100 100 100 100 101 98 90 80 72 66 63 65 72 83 90 91 93 96 97 97 100 100 97 89 78 68 59 52 48 45 42
93 96 97 96 94 92 93 94 96 99 100 100 100 100 100 100 100 94 83 73 69 70 76 83 88 89 91 95 97 99 100 101 97 89 78 69 63 60 58 54 49 43
97 99 99 99 99 98 98 99 100 100 100 100 100 100 100 100 101 97 87 79 79 81 84 87 89 90 94 97 99 101 100 95 89 80 73 70 67 64 59 53 49 46
98 100 100 100 100 100 100 100 100 100 100 100 100 100 100 100 101 99 92 87 87 88 88 91 94 96 98 100 100 99 94 88 82 77 73 70 65 61 57 55 53 51
97 99 100 100 100 100 100 100 100 100 100 100 100 100 100 100 100 99 96 92 91 91 93 96 98 99 101 100 98 93 88 82 78 73 70 67 63 62 60 58 55 50
97 97 99 100 100 100 100 100 100 100 100 100 100 100 100 100 100 99 98 95 93 94 97 99 100 100 100 96 91 87 82 78 75 72 69 67 65 63 60 55 49 42
99 98 99 100 100 100 100 100 100 100 100 100 100 100 100 100 100 100 99 97 96 97 100 100 100 99 95 90 86 83 79 76 73 71 69 66 62 57 52 45 39 34
100 100 100 100 100 100 100 100 100 100 100 100 100 100 100 100 100 100 100 100 99 100 101 99 97 93 89 85 82 78 75 72 70 67 64 59 53 47 41 36 33 32
100 100 100 100 100 100 100 100 100 100 100 100 100 100 100 100 100 100 100 100 100 100 99 95 91 87 83 80 76 73 71 67 64 60 55 49 44 39 36 35 34 34
99 100 100 100 100 100 101 100 100 100 100 100 100 100 100 100 100 100 100 101 100 98 93 88 83 80 77 74 71 68 65 60 56 52 47 43 40 37 36 36 36 35
96 100 100 100 100 99 99 98 99 100 100 100 100 100 100 100 100 100 101 99 96 90 85 81 77 74 71 69 66 62 58 55 51 47 44 41 38 37 37 37 36 36
92 99 99 99 98 96 96 97 99 100 100 100 100 100 100 100 100 101 99 94 88 83 79 75 72 69 67 64 61 58 55 51 47 44 42 40 39 38 38 38 37 38
Wind_Speed
35 35 35 38 40 41 41 39 38 36 35 34 35 35 35 34 35 36 37 37 37 37 37 36 36 34 32 31 30 30 30 30 30 28 28 28 28 30 32 31 31 32
35 36 36 36 38 40 41 41 39 37 35 34 35 37 37 36 37 37 38 38 38 38 38 38 37 35 34 34 33 33 34 33 32 31 30 31 32 34 34 33 34 34
35 36 36 36 36 38 39 39 38 37 35 34 36 38 38 38 38 39 39 39 39 39 39 39 38 37 37 36 36 35 36 35 33 32 32 33 34 35 35 35 36 36
35 35 36 36 36 36 37 37 37 35 34 34 37 39 39 39 39 40 40 40 40 39 39 40 39 39 38 37 36 36 36 35 33 33 33 34 34 35 36 37 37 38
34 34 34 34 34 35 35 36 35 34 33 35 38 40 41 41 41 41 40 40 40 40 41 41 41 40 38 37 36 37 36 35 34 34 34 34 35 37 38 39 38 39
34 34 34 34 34 34 34 35 35 34 34 36 39 42 43 43 42 42 41 41 42 42 42 42 41 40 39 38 38 38 37 35 35 35 35 35 37 39 40 40 39 39
34 35 35 35 34 33 33 34 35 36 36 37 39 42 43 43 43 42 42 42 43 43 43 43 42 41 41 41 40 38 36 35 35 35 35 37 39 40 40 40 39 38
33 35 36 35 34 33 32 33 34 35 36 36 38 41 43 43 43 43 43 43 43 43 44 44 44 43 43 41 39 37 35 34 34 35 37 38 39 39 40 40 38 36
33 34 36 36 35 34 33 33 33 33 34 35 37 40 43 44 44 44 43 43 43 44 44 45 45 44 42 40 37 35 34 34 35 37 38 38 38 38 38 37 36 34
32 34 35 36 35 35 34 33 33 33 33 34 36 40 43 45 45 44 43 43 43 44 45 45 45 43 41 38 36 34 34 35 37 38 38 38 38 38 37 35 33 32
31 33 34 36 36 36 35 33 33 33 33 34 36 39 42 44 45 45 44 44 44 44 45 45 44 41 39 37 35 34 36 37 38 37 38 38 38 37 35 33 31 30
31 32 34 35 35 35 35 34 34 34 34 35 36 39 42 44 45 45 45 45 45 45 45 44 42 40 38 35 34 36 37 37 37 38 39 38 36 34 33 31 30 29
32 32 33 34 35 35 34 34 33 34 35 35 37 39 42 44 45 46 46 46 46 46 44 43 41 38 35 35 35 37 37 38 39 39 38 36 34 32 30 29 28 28
32 32 33 33 34 35 35 34 33 34 35 36 38 40 42 44 45 45 46 46 45 44 43 40 38 35 34 35 37 38 39 40 40 39 37 34 31 29 28 28 28 28
32 32 32 33 34 35 36 36 35 35 36 37 39 40 42 43 44 45 45 45 44 42 39 36 34 34 35 37 38 39 40 39 38 35 33 30 29 28 28 28 28 29
31 31 32 33 34 35 36 37 37 36 36 37 39 40 41 42 43 44 43 42 41 38 34 32 33 35 37 38 39 39 38 36 34 31 30 29 29 29 28 29 29 30
30 30 31 33 34 35 36 35 35 36 35 36 38 39 40 41 42 42 41 40 37 33 32 32 34 36 38 39 39 37 34 32 30 29 29 29 29 29 29 30 30 31
29 30 31 33 34 35 35 33 33 34 34 35 37 38 39 40 40 40 39 36 33 32 32 33 35 37 38 37 35 32 30 29 28 28 28 29 29 30 30 31 32 32
28 30 31 32 33 34 33 32 31 32 33 34 35 36 37 38 38 37 35 33 32 32 32 34 35 36 34 32 30 28 27 27 27 28 28 29 30 31 31 32 33 33
27 29 30 31 32 32 32 31 31 31 32 32 33 34 35 36 35 34 33 31 31 32 33 34 34 31 29 28 27 27 26 27 28 28 29 30 31 32 33 33 33 34
28 28 30 30 30 30 30 29 29 29 30 31 32 33 33 33 32 31 30 30 32 33 32 31 29 27 26 26 26 26 26 27 28 29 30 31 32 33 33 33 34 35
29 29 29 29 28 28 27 27 26 27 28 29 30 31 31 30 29 28 29 30 31 30 28 26 25 25 25 25 25 26 27 28 29 30 31 32 32 33 33 34 35 35
28 29 29 28 27 25 24 24 24 24 26 27 28 28 27 27 27 28 29 29 27 26 24 24 24 24 24 25 26 27 28 30 30 31 31 32 33 33 34 34 35 36
27 27 27 26 24 22 21 21 21 22 24 25 25 25 25 26 27 28 27 25 24 23 23 23 23 24 25 26 27 29 30 31 31 32 32 33 33 34 34 35 35 35
24 25 25 23 21 20 19 19 20 21 22 23 23 24 25 26 26 25 23 22 22 22 22 23 24 25 26 28 29 30 31 32 32 33 33 34 34 34 34 35 35 36
21 22 22 20 19 19 18 19 19 20 21 23 24 25 26 25 24 22 21 21 22 22 23 24 25 27 28 29 31 32 32 33 34 34 35 35 35 35 35 35 35 36
Wind_Direction
268 265 260 255 251 248 245 243 242 242 242 242 241 240 240 240 241 242 242 240 238 238 239 240 241 241 242 246 250 255 259 262 264 268 274 280 286 292 295 298 300 300
270 268 266 260 254 251 248 246 244 243 242 242 241 241 240 239 239 240 240 239 238 238 239 239 239 240 244 248 252 256 260 261 264 268 274 280 287 291 293 296 299 299
272 271 270 266 260 254 250 247 244 242 241 240 240 241 240 238 238 239 239 238 237 237 238 238 239 241 245 248 252 256 258 260 264 269 276 283 288 291 293 297 299 298
272 271 271 271 267 260 253 247 243 240 238 238 239 239 238 237 237 238 237 237 237 238 238 239 239 242 244 246 251 254 257 260 265 272 279 285 288 291 295 298 298 295
272 271 270 271 270 264 256 249 243 238 235 236 237 237 236 235 235 236 237 238 238 239 238 238 238 240 243 247 251 254 257 261 267 274 280 284 288 292 295 297 295 291
272 270 269 269 269 265 259 251 243 237 234 235 236 236 236 236 236 237 238 239 239 238 237 237 238 241 245 249 252 254 258 263 269 274 279 284 289 293 295 293 290 286
273 271 268 266 266 264 258 250 244 238 236 236 237 237 238 238 238 238 238 239 239 238 238 238 240 244 247 250 252 255 259 264 270 274 280 286 290 291 291 288 284 280
276 272 269 267 264 262 256 249 243 239 238 238 239 239 240 239 238 238 238 239 239 239 239 240 242 245 247 249 251 256 261 266 272 278 283 286 287 287 286 284 280 277
279 275 272 269 265 262 257 248 242 239 240 241 240 239 240 240 239 238 238 239 239 240 240 241 243 245 246 249 253 257 263 268 275 280 283 285 285 284 282 280 277 275
280 277 274 271 268 265 259 250 242 240 241 244 243 241 240 240 241 240 239 239 239 240 240 241 242 244 247 251 255 260 266 272 277 280 282 283 282 280 278 276 274 273
279 277 275 272 270 267 262 254 245 241 242 245 246 244 240 240 240 240 240 240 240 240 240 241 242 245 248 252 258 264 270 274 278 280 281 280 277 275 274 272 271 272
280 277 274 273 271 269 265 258 247 242 242 245 248 246 242 240 240 240 240 240 241 241 241 242 244 247 251 256 263 268 272 275 278 278 277 275 273 272 270 270 270 271
281 277 274 272 271 269 267 260 250 243 242 245 248 247 243 241 240 240 240 241 241 242 243 244 246 249 255 261 267 271 274 277 277 276 274 272 270 269 269 270 271 273
282 279 275 272 270 268 265 260 252 245 243 245 247 247 244 241 240 240 240 241 241 242 243 245 248 253 259 264 269 273 275 275 273 272 270 269 268 269 270 271 273 275
283 279 275 272 269 266 263 258 252 246 243 245 247 247 244 241 240 240 240 240 241 242 244 247 252 257 262 267 271 273 271 270 269 268 268 268 269 270 271 273 275 277
284 280 275 272 269 266 262 257 250 245 244 246 248 247 244 242 240 239 239 241 242 244 247 252 256 261 266 270 270 269 267 267 267 267 267 268 270 271 273 274 276 277
285 282 278 274 271 268 263 257 250 247 247 249 250 248 245 242 240 239 240 241 244 246 250 255 260 264 267 268 266 265 265 266 266 267 268 269 271 273 274 275 277 278
285 282 279 275 271 267 263 257 251 249 250 251 251 249 246 243 240 240 240 242 245 248 252 258 263 265 265 264 264 265 266 266 267 269 270 272 273 275 276 277 278 279
286 283 279 274 269 265 261 257 253 251 250 251 251 249 246 244 241 240 241 243 246 251 256 261 263 263 263 264 265 266 267 268 270 271 273 275 276 277 278 279 279 280
286 285 281 275 269 263 259 256 253 251 251 251 250 248 246 243 241 240 242 244 249 254 258 260 261 262 263 264 265 267 269 271 273 274 276 277 277 278 279 279 280 280
285 285 283 278 270 263 257 254 252 251 250 250 248 246 243 241 240 241 244 248 252 255 258 259 261 262 264 265 267 270 272 274 275 276 277 278 279 279 279 280 280 281
281 281 281 278 271 263 256 252 250 249 249 247 245 243 241 240 241 243 247 251 254 256 258 260 262 264 266 269 272 274 275 276 277 277 278 279 280 280 280 281 281 281
278 278 278 275 269 261 254 249 247 246 246 244 242 240 239 240 242 245 249 252 254 257 259 262 265 268 271 273 274 276 276 277 277 278 279 280 280 281 281 282 282 283
277 276 273 269 263 255 248 245 243 242 242 241 238 237 237 240 243 247 250 253 256 259 263 266 270 272 273 275 276 277 277 278 279 280 280 281 281 281 282 282 283 284
278 275 269 262 253 245 240 237 236 236 235 233 232 233 237 241 245 248 251 256 260 264 268 270 272 274 275 277 278 279 280 281 282 282 282 282 283 283 283 283 283 284
279 272 264 254 243 236 231 228 227 228 226 226 230 235 239 243 246 250 256 261 266 269 271 273 274 276 278 279 280 281 282 283 283 283 284 284 284 283 283 283 285 287